Track OPS 7518 (NTS 1) now! 10-day predictions OPS 7518 (NTS 1) is classified as:
1 7369U 74054A 21023.10453003 .00000111 00000-0 00000+0 0 9991 2 7369 125.1559 33.4706 0071327 316.8976 68.0101 3.07215099522133